Weather History for Kaiser, MO

Change the Weather History Date:

Tuesday, April 16, 2013

  Actual Average Record
Temperature  
Mean Temperature 45 °F -  
Max Temperature 48 °F 65 °F 84 °F (2004)
Min Temperature 42 °F 45 °F 35 °F (2001)
Degree Days  
Heating Degree Days 20    
Moisture  
Dew Point 41 °F    
Average Humidity 89    
Maximum Humidity 93    
Minimum Humidity 81    
Precipitation  
Precipitation 0.57 in - - ()
Sea Level Pressure  
Sea Level Pressure 30.08 in    
Wind  
Wind Speed 11 mph (NE)    
Max Wind Speed 18 mph    
Max Gust Speed 22 mph    
Visibility 6 miles    
Events Thunderstorm    
Averages and records for this station are not official NWS values.
T = Trace of Precipitation, MM = Missing Value Source: NWS Daily Summary

Daily Weather History Graph

Daily Weather History Graph

Search for Another Location

Airport:

Trip Planner

Search our weather history database for the weather conditions in past years. The results will help you decide how hot, cold, wet, or windy it might be!

Date:

Astronomy

Apr. 16, 2013 Rise Set
Actual Time 6:32 AM CDT 7:47 PM CDT
Civil Twilight 6:05 AM CDT 8:14 PM CDT
Nautical Twilight 5:33 AM CDT 8:47 PM CDT
Astronomical Twilight 4:58 AM CDT 9:21 PM CDT
Moon 10:54 AM CDT (4/16) 12:42 AM CDT (4/16)
Length of Visible Light 14h 09m
Length of Day
13h 14m
Waxing Crescent, 33% of the Moon is Illuminated
Apr 16
Waxing Crescent
Apr 18
First Quarter
Apr 25
Full
May 2
Last Quarter
May 9
New

Hourly Weather History & Observations

Time (CDT) Temp. Windchill Dew Point Humidity Pressure Visibility Wind Dir Wind Speed Gust Speed Precip Events Conditions
12:15 AM 48.2 °F - 44.6 °F 87% 29.96 in 10.0 mi NNE 10.4 mph - N/A   Overcast
12:35 AM 48.2 °F - 42.8 °F 82% 29.97 in 10.0 mi NE 11.5 mph 19.6 mph N/A   Overcast
12:55 AM 48.2 °F - 44.6 °F 87% 29.97 in 10.0 mi NNE 13.8 mph 19.6 mph N/A   Overcast
1:15 AM 48.2 °F - 42.8 °F 82% 29.95 in 10.0 mi ENE 16.1 mph 21.9 mph N/A Thunderstorm Overcast
1:35 AM 46.4 °F 39.2 °F 42.8 °F 87% 29.97 in 10.0 mi ENE 18.4 mph - N/A Thunderstorm Thunderstorm
1:55 AM 46.4 °F 40.7 °F 42.8 °F 87% 29.96 in 10.0 mi NE 12.7 mph 21.9 mph 0.02 in Thunderstorm Overcast
2:15 AM 46.4 °F 40.7 °F 42.8 °F 87% 29.98 in 5.0 mi ENE 12.7 mph - 0.24 in Thunderstorm Thunderstorm
2:35 AM 44.6 °F 38.4 °F 42.8 °F 93% 29.96 in 10.0 mi ENE 12.7 mph 20.7 mph 0.25 in Thunderstorm Overcast
2:55 AM 44.6 °F 42.2 °F 42.8 °F 93% 30.01 in 8.0 mi North 4.6 mph - 0.40 in Thunderstorm Thunderstorm
3:15 AM 44.6 °F 40.2 °F 42.8 °F 93% 30.01 in 10.0 mi NE 8.1 mph - 0.08 in Thunderstorm Thunderstorm
3:35 AM 44.6 °F 42.2 °F 42.8 °F 93% 30.02 in 10.0 mi North 4.6 mph - 0.08 in   Overcast
3:55 AM 44.6 °F 40.7 °F 41.0 °F 87% 30.02 in 10.0 mi NE 6.9 mph 18.4 mph 0.13 in   Overcast
4:15 AM 44.6 °F 40.7 °F 42.8 °F 93% 30.02 in 10.0 mi NNE 6.9 mph - N/A   Overcast
4:35 AM 44.6 °F 39.7 °F 41.0 °F 87% 30.01 in 10.0 mi NE 9.2 mph - 0.01 in   Overcast
4:55 AM 44.6 °F 38.4 °F 41.0 °F 87% 30.02 in 10.0 mi NE 12.7 mph - 0.01 in   Overcast
5:15 AM 44.6 °F 39.2 °F 41.0 °F 87% 30.02 in 10.0 mi NE 10.4 mph 16.1 mph N/A   Overcast
5:35 AM 44.6 °F 39.7 °F 41.0 °F 87% 30.03 in 10.0 mi NE 9.2 mph - N/A   Overcast
5:55 AM 44.6 °F 40.2 °F 41.0 °F 87% 30.04 in 10.0 mi NE 8.1 mph - N/A   Overcast
6:15 AM 44.6 °F 38.8 °F 41.0 °F 87% 30.05 in 10.0 mi NE 11.5 mph 16.1 mph N/A   Overcast
6:35 AM 42.8 °F 36.2 °F 39.2 °F 87% 30.06 in 10.0 mi NE 12.7 mph 16.1 mph N/A   Overcast
6:55 AM 42.8 °F 35.8 °F 41.0 °F 93% 30.06 in 6.0 mi NE 13.8 mph 19.6 mph N/A   Overcast
7:15 AM 42.8 °F 37.0 °F 39.2 °F 87% 30.07 in 3.0 mi NE 10.4 mph 16.1 mph N/A   Overcast
7:35 AM 42.8 °F 36.2 °F 39.2 °F 87% 30.08 in 2.5 mi NE 12.7 mph 16.1 mph N/A   Overcast
7:55 AM 42.8 °F 37.0 °F 39.2 °F 87% 30.08 in 2.0 mi NE 10.4 mph - N/A   Overcast
8:15 AM 42.8 °F 39.3 °F 39.2 °F 87% 30.10 in 2.5 mi NNE 5.8 mph - N/A   Overcast
8:35 AM 42.8 °F 37.0 °F 39.2 °F 87% 30.11 in 3.0 mi NE 10.4 mph 19.6 mph N/A   Overcast
8:55 AM 42.8 °F 37.5 °F 39.2 °F 87% 30.10 in 3.0 mi NNE 9.2 mph 16.1 mph N/A   Overcast
9:15 AM 42.8 °F 38.6 °F 39.2 °F 87% 30.12 in 2.5 mi North 6.9 mph - 0.01 in Thunderstorm Overcast
9:35 AM 42.8 °F 37.5 °F 39.2 °F 87% 30.11 in 4.0 mi NE 9.2 mph - 0.01 in Thunderstorm Overcast
9:55 AM 42.8 °F 36.2 °F 39.2 °F 87% 30.11 in 5.0 mi NE 12.7 mph 16.1 mph 0.01 in   Overcast
10:15 AM 42.8 °F 36.6 °F 39.2 °F 87% 30.11 in 5.0 mi NE 11.5 mph - N/A   Overcast
10:35 AM 42.8 °F 36.6 °F 39.2 °F 87% 30.12 in 3.0 mi NE 11.5 mph - N/A   Overcast
10:55 AM 42.8 °F 38.0 °F 39.2 °F 87% 30.12 in 4.0 mi ENE 8.1 mph - N/A   Overcast
11:15 AM 42.8 °F 37.5 °F 39.2 °F 87% 30.12 in 3.0 mi NE 9.2 mph - N/A   Overcast
11:35 AM 42.8 °F 36.6 °F 41.0 °F 93% 30.12 in 3.0 mi East 11.5 mph 16.1 mph N/A   Overcast
11:55 AM 44.6 °F 39.7 °F 39.2 °F 81% 30.12 in 9.0 mi NE 9.2 mph - N/A   Overcast
12:15 PM 44.6 °F 40.7 °F 41.0 °F 87% 30.12 in 5.0 mi ENE 6.9 mph - N/A   Overcast
12:35 PM 42.8 °F 37.0 °F 41.0 °F 93% 30.12 in 2.5 mi NE 10.4 mph - N/A   Overcast
12:55 PM 42.8 °F 38.0 °F 41.0 °F 93% 30.12 in 2.5 mi NE 8.1 mph - N/A   Overcast
1:15 PM 42.8 °F 37.0 °F 41.0 °F 93% 30.11 in 3.0 mi NE 10.4 mph - N/A   Overcast
1:35 PM 42.8 °F 36.6 °F 41.0 °F 93% 30.11 in 3.0 mi NE 11.5 mph - N/A   Overcast
1:55 PM 44.6 °F 39.7 °F 41.0 °F 87% 30.12 in 4.0 mi NE 9.2 mph - N/A   Overcast
2:15 PM 44.6 °F 39.2 °F 41.0 °F 87% 30.11 in 5.0 mi NE 10.4 mph - N/A   Overcast
2:35 PM 44.6 °F 38.8 °F 41.0 °F 87% 30.10 in 4.0 mi ENE 11.5 mph - N/A   Overcast
2:55 PM 44.6 °F 40.2 °F 41.0 °F 87% 30.10 in 5.0 mi NE 8.1 mph - N/A   Overcast
3:15 PM 44.6 °F 38.4 °F 42.8 °F 93% 30.10 in 6.0 mi NE 12.7 mph - N/A   Overcast
3:35 PM 44.6 °F 38.8 °F 41.0 °F 87% 30.10 in 9.0 mi ENE 11.5 mph 16.1 mph N/A   Overcast
3:55 PM 44.6 °F 39.2 °F 41.0 °F 87% 30.10 in 10.0 mi ENE 10.4 mph - N/A   Overcast
4:15 PM 44.6 °F 39.7 °F 42.8 °F 93% 30.09 in 5.0 mi NE 9.2 mph - N/A   Overcast
4:35 PM 44.6 °F 39.2 °F 42.8 °F 93% 30.09 in 5.0 mi ENE 10.4 mph - N/A   Overcast
4:55 PM 44.6 °F 38.8 °F 42.8 °F 93% 30.09 in 5.0 mi NE 11.5 mph - N/A   Overcast
5:15 PM 44.6 °F 39.7 °F 41.0 °F 87% 30.10 in 5.0 mi NE 9.2 mph - N/A   Overcast
5:35 PM 44.6 °F 38.8 °F 41.0 °F 87% 30.10 in 5.0 mi ENE 11.5 mph - N/A   Overcast
5:55 PM 44.6 °F 39.7 °F 42.8 °F 93% 30.10 in 6.0 mi NE 9.2 mph - N/A   Overcast
6:15 PM 44.6 °F 39.2 °F 42.8 °F 93% 30.10 in 5.0 mi ENE 10.4 mph 16.1 mph N/A   Overcast
6:35 PM 44.6 °F 39.2 °F 41.0 °F 87% 30.10 in 4.0 mi ENE 10.4 mph - N/A   Overcast
6:55 PM 44.6 °F 38.8 °F 41.0 °F 87% 30.10 in 4.0 mi ENE 11.5 mph - N/A   Overcast
7:15 PM 44.6 °F 38.8 °F 41.0 °F 87% 30.10 in 5.0 mi ENE 11.5 mph - N/A   Overcast
7:35 PM 44.6 °F 38.8 °F 42.8 °F 93% 30.10 in 6.0 mi ENE 11.5 mph - N/A   Overcast
7:55 PM 44.6 °F 38.8 °F 42.8 °F 93% 30.10 in 5.0 mi ENE 11.5 mph 16.1 mph N/A   Overcast
8:15 PM 44.6 °F 39.7 °F 42.8 °F 93% 30.11 in 6.0 mi ENE 9.2 mph 17.3 mph N/A   Overcast
8:35 PM 44.6 °F 38.8 °F 42.8 °F 93% 30.11 in 7.0 mi East 11.5 mph - N/A   Overcast
8:55 PM 44.6 °F 39.2 °F 42.8 °F 93% 30.11 in 7.0 mi ENE 10.4 mph - N/A   Overcast
9:15 PM 44.6 °F 39.2 °F 42.8 °F 93% 30.12 in 6.0 mi East 10.4 mph - N/A   Overcast
9:35 PM 44.6 °F 40.7 °F 42.8 °F 93% 30.12 in 6.0 mi ENE 6.9 mph - N/A   Overcast
9:55 PM 44.6 °F 40.2 °F 42.8 °F 93% 30.12 in 5.0 mi East 8.1 mph - N/A   Overcast
10:15 PM 44.6 °F 40.2 °F 42.8 °F 93% 30.12 in 3.0 mi East 8.1 mph - N/A   Overcast
10:35 PM 44.6 °F 39.7 °F 42.8 °F 93% 30.12 in 3.0 mi ENE 9.2 mph - N/A   Overcast
10:55 PM 44.6 °F 40.7 °F 42.8 °F 93% 30.11 in 4.0 mi East 6.9 mph - N/A   Overcast
11:15 PM 44.6 °F 40.2 °F 42.8 °F 93% 30.10 in 4.0 mi East 8.1 mph - N/A   Overcast
11:35 PM 44.6 °F 40.7 °F 42.8 °F 93% 30.10 in 4.0 mi East 6.9 mph - N/A   Overcast
11:55 PM 44.6 °F 39.7 °F 42.8 °F 93% 30.09 in 3.0 mi East 9.2 mph - N/A   Overcast